Location: Decatur Area Astronomy Club
(40.0275°N, 88.7810°W)
Time: 05:18:40
(UTC-05:00)

Daily predictions for brighter satellites

Satellite Brightness Start Highest point End
(mag) Time Altitude Azimuth Time Altitude Azimuth Time Altitude Azimuth
Cosmos 1758 Rocket 4.5 00:07:46 42° WNW 00:07:46 42° WNW 00:11:26 10° N
H-2A R/B 4.3 00:09:07 16° W 00:09:07 16° W 00:11:55 10° NW
ATLAS CENTAUR R/B 3.0 00:08:55 10° NNW 00:10:49 29° NNW 00:10:49 29° NNW
ARGOS Delta rocket 4.1 00:13:35 10° NNE 00:18:43 77° ENE 00:18:43 77° ENE
SL-16 R/B 2.3 00:20:05 10° NNW 00:25:26 65° W 00:25:26 65° W
CZ-2C R/B 3.2 00:39:13 70° W 00:39:13 70° W 00:44:40 10° NNW
Cosmos 1302 Rocket 4.4 00:36:37 10° NNW 00:41:09 57° WNW 00:41:09 57° WNW
Cosmos 1339 Rocket 4.4 00:42:21 76° SW 00:42:49 81° W 00:49:12 10° N
ALOS 2 3.6 00:44:27 42° NW 00:44:27 42° NW 00:47:34 10° NNW
Cosmos 1727 Rocket 3.9 00:43:32 72° WSW 00:43:58 76° W 00:50:15 10° N
Meteor 2-1 Rocket 4.4 00:38:27 10° N 00:44:21 66° E 00:44:34 65° E
Cosmos 2322 3.8 00:45:32 10° NNW 00:51:11 68° ENE 00:51:19 68° ENE
USA 267 3.6 00:45:30 10° NE 00:51:56 62° NW 00:55:15 30° WSW
SeaSat 1 2.9 00:53:41 55° WNW 00:53:41 55° WNW 00:57:40 10° NNW
Cosmos 1605 Rocket 4.3 00:47:23 10° NNW 00:53:15 51° W 00:53:30 51° W
Cosmos 1833 4.2 00:56:15 74° WNW 00:56:15 74° WNW 01:01:56 10° NNE
ISS -0.7 00:54:41 10° NNW 00:56:41 15° NNE 00:57:37 14° NE
Lacrosse 5 3.0 00:56:51 35° WNW 00:58:01 40° NW 01:02:48 10° NNE
Cosmos 1000 Rocket 4.5 01:00:46 67° ESE 01:01:10 69° E 01:07:28 10° NNE
Okean 3 Rocket 4.4 01:04:03 48° NE 01:04:03 48° NE 01:07:29 10° NNE
Cosmos 2219 3.7 01:04:29 47° E 01:04:29 47° E 01:09:18 10° NE
Cosmos 2360 Rocket 2.2 00:59:19 10° NNW 01:04:36 75° WNW 01:04:36 75° WNW
NOSS 3-1 (C) 4.4 00:58:31 10° NW 01:05:51 46° WSW 01:06:22 45° SW
COSMOS 2428 3.2 01:03:25 10° NNW 01:09:01 52° ENE 01:09:55 47° E
Cosmos 2173 Rocket 3.8 01:03:28 10° N 01:09:36 81° E 01:09:56 78° SE
CZ-4B R/B 4.1 01:16:48 18° N 01:16:48 18° N 01:17:44 10° N
Cosmos 2322 Rocket 3.8 01:12:34 10° NW 01:16:00 23° W 01:16:00 23° W
Lacrosse 5 rocket 3.5 01:14:00 10° NW 01:15:50 22° WNW 01:15:50 22° WNW
Landsat 5 4.2 01:20:17 57° N 01:20:17 57° N 01:23:56 10° N
Cosmos 2221 3.5 01:19:58 10° N 01:22:59 44° NNW 01:22:59 44° NNW
USA 234 3.5 01:21:19 23° ESE 01:25:34 67° NE 01:32:03 10° NW
Cosmos 1459 Rocket 4.0 01:24:41 10° NNW 01:31:00 68° W 01:31:27 66° WSW
Geosat 4.3 01:28:05 10° NNE 01:33:02 60° WNW 01:33:02 60° WNW
CZ-2C R/B 4.3 01:29:07 10° NNW 01:33:31 24° WNW 01:34:42 23° W
Cosmos 1242 Rocket 4.5 01:35:44 10° N 01:37:46 29° NNE 01:37:46 29° NNE
ATLAS 2AS CENTAUR R/B 3.2 01:31:24 10° NNW 01:39:26 66° NE 01:43:52 27° SE
Cosmos 2333 Rocket 3.1 01:35:48 10° NNW 01:41:16 45° ENE 01:43:19 32° ESE
Cosmos 1076 Rocket 4.4 01:46:39 45° NNW 01:46:39 45° NNW 01:49:58 10° N
Cosmos 2297 Rocket 3.5 01:45:42 27° ESE 01:46:05 27° ESE 01:50:47 10° NE
NOSS 3-3 (A) 3.9 01:45:42 64° SE 01:46:09 67° ESE 01:52:39 10° NE
NOSS 3-3 (C) 3.9 01:45:49 64° SE 01:46:15 66° ESE 01:52:44 10° NE
Cosmos 2219 Rocket 2.5 01:42:30 10° NNW 01:48:09 62° ENE 01:49:22 50° ESE
Cosmos 1674 4.2 01:50:36 34° NNW 01:50:36 34° NNW 01:53:03 10° N
Cosmos 1802 Rocket 4.2 01:45:23 10° NNW 01:51:28 54° W 01:51:50 53° WSW
Cosmos 2016 Rocket 4.0 01:47:56 10° NNW 01:54:12 63° W 01:54:50 60° WSW
Cosmos 1726 3.4 01:56:51 10° N 01:59:25 40° NNE 01:59:25 40° NNE
SL-14 R/B 4.2 02:02:50 48° NE 02:02:50 48° NE 02:06:04 10° NNE
SL-16 R/B 4.5 01:59:53 10° ESE 02:04:39 24° ENE 02:09:27 10° N
Cosmos 2237 Rocket 2.9 02:02:27 10° NNW 02:07:57 51° ENE 02:10:33 29° ESE
Cosmos 1328 Rocket 3.7 02:04:18 10° N 02:08:20 70° NNE 02:08:20 70° NNE
SL-16 R/B 4.3 02:04:42 10° N 02:09:16 24° NE 02:13:47 10° ESE
Cosmos 1151 Rocket 3.9 02:06:41 10° N 02:10:50 43° ENE 02:11:07 42° E
SL-8 R/B 4.4 02:09:55 42° WNW 02:10:55 49° NNW 02:15:35 10° NE
Cosmos 1300 3.6 02:09:01 10° N 02:11:53 48° N 02:11:53 48° N
Meteor 2-10 4.1 02:09:21 10° N 02:14:28 70° E 02:15:17 59° SE
Cosmos 1954 Rocket 3.8 02:17:53 78° SSW 02:18:16 89° ESE 02:23:33 10° NNE
Cosmos 407 Rocket 3.9 02:18:36 47° W 02:18:57 48° WNW 02:23:57 10° N
Cosmos 2123 Rocket 4.3 02:20:10 46° WSW 02:21:10 50° WNW 02:27:09 10° N
Resurs 1-4 Rocket 3.9 02:17:20 10° NE 02:21:23 22° E 02:23:39 17° SE
Helios 1A Rocket 3.1 02:18:53 10° N 02:22:38 68° NNW 02:22:38 68° NNW
Cosmos 2227 Rocket 2.1 02:22:51 63° S 02:23:42 75° ESE 02:29:22 10° NNE
H-2A R/B 3.9 02:20:10 10° N 02:23:39 29° WNW 02:23:39 29° WNW
ARIANE 5 R/B 4.4 02:22:32 10° NE 02:26:19 21° E 02:28:27 16° SE
Cosmos 2228 Rocket 3.2 02:21:56 10° NNW 02:26:03 66° WNW 02:26:03 66° WNW
Cosmos 1447 Rocket 4.4 02:26:01 56° SSW 02:27:25 81° W 02:33:44 10° N
Cosmos 2058 3.1 02:32:09 64° E 02:32:09 64° E 02:36:09 10° NNE
Cosmos 2233 Rocket 4.0 02:28:45 10° NNW 02:35:03 70° W 02:36:35 51° SSW
Cosmos 676 Rocket 4.4 02:35:53 47° W 02:36:38 50° WNW 02:41:48 10° N
CZ-2D R/B 3.3 02:38:22 10° NNE 02:43:04 33° E 02:45:23 23° SE
IRS-P3 Rocket 4.5 02:40:44 10° NNE 02:45:59 83° ESE 02:47:14 54° S
NOSS 0 Rocket 4.0 02:45:01 10° NNW 02:51:03 55° WSW 02:52:26 46° SSW
COSMOS 2428 4.2 02:48:36 10° NW 02:51:53 21° W 02:51:53 21° W
Cosmos 1500 Rocket 4.0 02:54:48 45° W 02:54:55 45° WNW 02:59:11 10° N
Cosmos 2082 3.7 02:53:37 49° SW 02:55:07 71° WNW 03:00:45 10° NNE
Cosmos 1455 2.8 02:51:32 10° N 02:55:20 52° E 02:56:14 41° SE
IRS-1C 4.1 02:52:48 10° NNE 02:58:09 78° ESE 02:59:58 43° S
SL-08 R/B 3.3 02:57:02 50° S 02:58:20 79° WSW 03:03:20 10° NNW
Lacrosse 4 Rocket 2.3 03:02:51 34° SE 03:03:39 37° ESE 03:07:33 10° NE
AQUA 3.7 02:59:57 10° N 03:04:43 78° WNW 03:05:53 51° SSW
Spot 4 Rocket 4.3 03:00:18 10° NNE 03:05:24 62° ESE 03:07:34 34° SSE
USA 234 3.8 03:08:35 34° SW 03:08:47 34° SW 03:14:39 10° WNW
Cosmos 1464 Rocket 3.9 03:02:46 10° N 03:08:58 85° W 03:12:16 29° S
Cosmos 1805 Rocket 3.6 03:07:49 45° SSE 03:09:06 74° E 03:13:31 10° NNE
Cosmos 1626 2.3 03:09:45 55° WNW 03:09:45 55° WNW 03:13:24 10° N
Cosmos 2208 Rocket 3.9 03:05:24 10° NNW 03:10:38 90° WSW 03:13:46 25° SSE
Meteor 1-27 4.5 03:07:53 10° NNW 03:13:32 53° W 03:15:29 37° SSW
Cosmos 1241 Rocket 4.4 03:08:19 10° NNW 03:14:47 81° WSW 03:21:04 10° SSE
ADEOS Rocket 3.6 03:08:04 10° NNE 03:15:39 86° ESE 03:20:34 26° SSW
DELTA 2 R/B (1) 3.5 03:15:05 37° WSW 03:17:20 73° SSE 03:22:53 10° E
IRS-1D 3.6 03:15:24 10° NNE 03:20:46 78° ESE 03:23:25 30° S
Cosmos 1869 3.8 03:18:49 10° N 03:22:47 58° E 03:25:10 22° SSE
Cosmos 2333 Rocket 3.3 03:20:40 10° NW 03:25:12 25° WSW 03:25:16 25° WSW
Cosmos 1703 4.1 03:27:38 32° W 03:27:57 33° WNW 03:31:32 10° NNW
Cosmos 2151 4.4 03:28:22 23° W 03:28:47 23° WNW 03:32:11 10° NNW
Aureole 2 Rocket 4.3 03:25:45 10° NW 03:28:14 23° W 03:28:14 23° W
ATLAS 2AS CENTAUR R/B 3.7 03:23:26 10° NW 03:29:47 28° WSW 03:31:13 26° SW
Cosmos 2297 Rocket 2.9 03:27:30 27° WSW 03:29:53 40° WNW 03:35:13 10° N
NOSS 3-4 (A) 4.1 03:24:06 10° NNW 03:31:10 74° NE 03:38:42 10° SE
NOSS 3-4 (C) 4.1 03:24:12 10° NNW 03:31:17 73° NE 03:38:48 10° SE
Cosmos 2219 Rocket 3.8 03:27:53 10° WNW 03:31:03 17° W 03:31:03 17° W
Sich 1 2.9 03:34:32 33° S 03:36:28 84° W 03:40:52 10° N
Cosmos 1633 Rocket 3.0 03:34:27 29° S 03:36:39 81° E 03:41:01 10° N
Cosmos 332 Rocket 4.3 03:42:14 10° NNW 03:47:04 62° ENE 03:51:51 10° SSE
SL-16 R/B 2.6 03:43:24 18° S 03:47:51 55° W 03:53:55 10° NNW
UNKNOWN OBJECT B 2.9 03:46:19 10° NNE 03:50:20 75° ESE 03:52:48 22° S
MOS 1 Rocket 3.9 03:45:16 10° NNE 03:50:27 64° E 03:55:15 13° S
Cosmos 2237 Rocket 3.4 03:47:25 10° NW 03:51:33 21° W 03:52:19 21° WSW
ATLAS 5 CENTAUR R/B 3.5 03:49:34 11° SSE 03:53:15 26° ESE 03:57:17 10° ENE
SL-16 R/B 2.4 03:48:11 10° NNW 03:53:40 51° WSW 03:59:07 10° S
ADEOS 3.8 03:51:32 10° N 03:56:38 55° WNW 03:59:53 22° SW
Cosmos 2227 4.3 03:56:31 19° SSW 04:00:48 83° ESE 04:06:35 10° NNE
Resurs 1-4 Rocket 2.6 03:56:22 10° N 04:01:24 45° WNW 04:04:43 20° SW
ARIANE 5 R/B 3.0 04:00:50 10° N 04:05:37 43° WNW 04:08:48 19° SW
ADEOS II 3.6 04:03:01 10° NNE 04:07:46 33° E 04:12:28 10° SSE
Cosmos 2227 Rocket 4.1 04:04:42 10° W 04:08:23 17° NW 04:12:05 10° N
ATLAS 3B CENTAUR R/B 3.9 03:55:54 10° W 04:08:42 34° SSW 04:14:11 10° SE
BREEZE M DEB (TANK) 3.3 04:15:58 17° SSW 04:17:36 28° SE 04:19:36 10° E
Cosmos 1943 4.4 04:14:26 10° NNW 04:19:50 45° ENE 04:25:12 10° SE
CZ-2D R/B 3.2 04:18:34 10° N 04:23:02 29° WNW 04:26:43 14° WSW
MOZ.5/SAFIR/RUBIN 5/SL-8 4.0 04:19:17 10° S 04:23:54 51° W 04:28:34 10° NNW
Cosmos 2242 Rocket 3.9 04:19:58 10° NNW 04:24:18 47° W 04:28:38 10° SSW
Cosmos 1867 4.3 04:21:07 10° S 04:26:19 49° ESE 04:31:34 10° NE
Cosmos 2263 Rocket 3.1 04:21:52 10° S 04:27:07 45° ESE 04:32:24 10° NE
Cosmos 1933 3.3 04:24:04 10° NNW 04:28:08 66° W 04:32:12 10° S
OAO 3 Rocket 4.2 04:25:10 15° SW 04:28:39 32° SSE 04:33:02 10° E
Cosmos 1892 3.3 04:26:17 10° S 04:29:59 57° E 04:33:45 10° NNE
CZ-3 R/B 4.1 03:45:29 10° W 04:30:52 55° SSW 04:41:07 10° SE
USA 161 1.1 04:30:02 19° SSW 04:31:05 36° W 04:32:55 10° NNW
Meteor 2-10 Rocket 3.4 04:29:24 10° NNW 04:34:24 75° W 04:39:27 10° S
Cosmos 1862 Rocket 3.6 04:31:27 10° NNW 04:35:41 55° W 04:39:54 10° S
Cosmos 1486 Rocket 4.3 04:31:21 12° SW 04:36:03 54° WNW 04:41:12 10° N
In-Cosmos 22 Rocket 4.1 04:34:11 10° SSW 04:39:28 67° W 04:44:46 10° N
Cosmos 1933 Rocket 4.1 04:36:04 10° SSW 04:40:19 44° WNW 04:44:36 10° N
Cosmos 841 Rocket 3.5 04:36:12 10° NNW 04:41:28 69° WSW 04:46:41 10° S
Lacrosse 4 Rocket 3.2 04:39:24 10° W 04:42:30 20° NW 04:45:41 10° N
Cosmos 1400 Rocket 2.9 04:38:55 10° SSW 04:42:46 59° W 04:46:42 10° N
USA 102 2.6 04:40:20 10° NNE 04:43:40 70° WNW 04:45:04 14° SSW
ORS 1 (USA 231) 4.5 04:44:58 10° W 04:48:03 88° NNW 04:51:08 10° E
Landsat 4 3.7 04:47:20 10° S 04:51:06 66° WSW 04:54:55 10° NNW
Cosmos 371 Rocket 3.8 04:47:30 10° NW 04:51:54 37° WSW 04:56:18 10° SSW
Meteor 1-26 Rocket 4.3 04:49:04 10° NNW 04:54:45 67° W 05:00:18 10° S
EO 1 Del DPAF 4.4 04:55:58 10° SSE 04:59:39 49° ENE 05:03:23 10° N
